Pagina principale
METAR-TAF:

METAR-TAF

Aeroporti :

Rieti, Italia

Aeroporto di Rieti

latitudine: 42-25N, longitudine: 012-51E, altezza: 389 m

Osservazione

Il bollettino è stato emesso 2 ore e 40 minuti fa, alle 17:50 UTC
Vento 2 kt da direzioni variabili
Temperature 19°C
Umidità 83%
Pressione 1006 hPa
Visibilità 10 km o più
Poco nuvoloso ad un'altezza di 4500 ft

METAR: LIQN 251750Z VRB02KT 9999 FEW045 19/16 Q1006

Ora: 22:30 (20:30 UTC)


TAF: mancante

Osservazioni e previsioni meteorologiche di più di 4000 aeroporti (messaggi METAR e TAF).

Le stazioni disponibili sono rappresentate dai dischi gialli e rossi sulla carta.

Puntare il mouse per vedere il nome della stazione.

Clicca sopra per visualizzare le osservazioni e previsioni meteorologiche.

Per cambiare la mappa : fare clic sui pulsanti verdi con una croce nera per ingrandire, il pulsante verde con un trattino per diminuire, o sulla freccia verde per le mappe adiacenti.


METAR-TAF: